FW8448 Weather Reports


Display with metric or nautical units.
time (UTC)temp
F
wind
direction
speed
MPH
gust
MPH
rain 1hr
in
rain 24hr
in
rain mn
in
humidity
%
barometer
mb
20260507180055 58 305 6.0 14.0 0.00 0.01 0.01 61 1014.7
20260507174556 58 60 1.0 5.0 0.00 0.01 0.01 63 1014.8
20260507173059 58 67 1.0 3.0 0.00 0.01 0.01 61 1015.0
20260507171557 57 327 1.0 12.0 0.00 0.01 0.01 58 1015.3
20260507170052 57 338 1.0 13.0 0.00 0.01 0.01 66 1015.5
20260507164552 56 298 1.0 8.0 0.00 0.01 0.01 60 1015.7
20260507163051 56 5 1.0 3.0 0.00 0.01 0.01 65 1015.6
20260507161554 54 0 4.0 17.0 0.00 0.01 0.01 61 1015.8
20260507160057 54 0 1.0 6.0 0.00 0.01 0.01 64 1015.9
20260507154555 54 295 6.0 15.0 0.00 0.01 0.01 60 1015.8
20260507153108 54 0 1.0 10.0 0.00 0.01 0.01 65 1015.8
20260507151601 52 338 2.0 12.0 0.00 0.01 0.01 66 1015.8
20260507150113 51 0 1.0 13.0 0.00 0.01 0.01 65 1015.8
20260507144553 50 288 8.0 15.0 0.00 0.01 0.01 65 1015.7
20260507143108 50 277 4.0 17.0 0.00 0.01 0.01 66 1015.8
20260507141557 49 281 3.0 9.0 0.00 0.01 0.01 63 1015.9
20260507140100 49 282 0.0 12.0 0.00 0.01 0.01 69 1015.9
20260507134557 48 281 8.0 13.0 0.00 0.01 0.01 70 1015.8
20260507133051 47 0 0.0 6.0 0.00 0.01 0.01 76 1015.8
20260507131552 45 0 0.0 4.0 0.00 0.01 0.01 83 1015.8
20260507124600 41 285 1.0 3.0 0.00 0.01 0.01 93 1015.7
20260507123050 39 0 0.0 2.0 0.01 0.01 0.01 95 1015.5
20260507121554 38 0 0.0 1.0 0.01 0.01 0.01 96 1015.5
20260507120050 37 0 0.0 0.0 0.01 0.01 0.01 95 1015.3
20260507114550 36 0 0.0 0.0 0.01 0.01 0.01 96 1015.2
20260507113052 34 0 0.0 0.0 0.00 0.00 0.00 95 1015.2
20260507111549 34 0 0.0 0.0 0.00 0.00 0.00 95 1015.2
20260507110101 33 0 0.0 0.0 0.00 0.00 0.00 94 1015.2
20260507104557 33 0 0.0 0.0 0.00 0.00 0.00 94 1015.1
20260507103117 34 0 0.0 0.0 0.00 0.00 0.00 94 1015.0
20260507101553 34 0 0.0 0.0 0.00 0.00 0.00 94 1015.0
20260507100107 35 0 0.0 0.0 0.00 0.00 0.00 93 1014.9
20260507094556 36 0 0.0 0.0 0.00 0.00 0.00 94 1014.9
20260507093050 36 0 0.0 0.0 0.00 0.00 0.00 94 1014.9
20260507091550 36 0 0.0 0.0 0.00 0.00 0.00 93 1014.9
20260507090057 36 0 0.0 0.0 0.00 0.00 0.00 93 1014.9
20260507084604 36 0 0.0 0.0 0.00 0.00 0.00 93 1014.8
20260507083047 36 0 0.0 0.0 0.00 0.00 0.00 93 1014.7
20260507081552 36 0 0.0 0.0 0.00 0.00 0.00 93 1014.6
20260507080054 37 0 0.0 0.0 0.00 0.00 0.00 93 1014.6
20260507074555 37 0 0.0 0.0 0.00 0.02 0.00 93 1014.7
20260507073051 37 0 0.0 0.0 0.00 0.02 0.00 93 1014.7
20260507071549 37 0 0.0 1.0 0.00 0.02 0.00 94 1014.7
20260507064553 38 0 0.0 0.0 0.00 0.02 0.00 94 1014.9
20260507063051 38 0 0.0 0.0 0.00 0.02 0.00 94 1015.0
20260507061550 38 0 0.0 0.0 0.00 0.02 0.00 94 1015.2
20260507060053 38 0 0.0 0.0 0.00 0.02 0.00 94 1015.1
20260507054607 38 0 0.0 0.0 0.00 0.08 0.00 94 1015.1
20260507053102 39 0 0.0 0.0 0.00 0.08 0.00 93 1015.0
20260507051600 39 0 0.0 0.0 0.00 0.08 0.00 94 1014.9
20260507050057 39 0 0.0 1.0 0.00 0.08 0.00 94 1014.9
20260507044606 39 0 0.0 0.0 0.00 0.16 0.00 93 1014.8
20260507043054 40 0 0.0 0.0 0.00 0.16 0.00 93 1014.7
20260507041604 40 0 0.0 0.0 0.00 0.16 0.00 93 1014.8
20260507040057 40 0 0.0 0.0 0.00 0.16 0.00 92 1014.7
20260507034549 40 0 0.0 0.0 0.00 0.27 0.16 91 1014.9
20260507033048 41 0 0.0 0.0 0.00 0.27 0.16 91 1014.9
20260507031551 42 0 0.0 0.0 0.00 0.27 0.16 90 1014.8
20260507030054 43 0 0.0 0.0 0.00 0.27 0.16 90 1014.8
20260507024556 44 0 0.0 0.0 0.00 0.42 0.16 89 1014.7
20260507023051 44 0 0.0 0.0 0.00 0.42 0.16 87 1014.7
20260507021622 45 0 0.0 0.0 0.00 0.42 0.16 83 1014.6
20260507020110 46 0 0.0 1.0 0.00 0.42 0.16 81 1014.6
20260507014620 46 0 0.0 0.0 0.00 0.46 0.16 80 1014.5
20260507013051 47 0 0.0 1.0 0.00 0.46 0.16 79 1014.4
20260507011559 49 0 0.0 0.0 0.00 0.46 0.16 77 1014.2
20260507010052 50 0 0.0 0.0 0.00 0.46 0.16 76 1014.1
20260507004552 52 0 0.0 1.0 0.00 0.55 0.16 75 1013.8
20260507003053 53 284 0.0 3.0 0.00 0.55 0.16 72 1013.7
20260507001602 53 0 0.0 3.0 0.00 0.55 0.16 73 1013.5
20260507000121 54 0 0.0 8.0 0.00 0.55 0.16 73 1013.4
20260506234618 54 269 1.0 3.0 0.00 0.69 0.16 71 1013.3
20260506233055 54 267 2.0 10.0 0.00 0.69 0.16 68 1013.3
20260506231555 56 271 4.0 9.0 0.00 0.69 0.16 65 1013.3
20260506230100 55 278 1.0 4.0 0.00 0.69 0.16 70 1013.3
20260506224553 55 271 2.0 10.0 0.00 0.75 0.16 67 1013.5
20260506223052 56 298 3.0 9.0 0.00 0.75 0.16 64 1013.7
20260506221600 54 0 0.0 4.0 0.00 0.75 0.16 67 1013.8
20260506220050 55 283 3.0 10.0 0.00 0.75 0.16 65 1013.9
20260506214547 55 278 5.0 13.0 0.00 0.81 0.16 64 1013.7
20260506213059 55 273 2.0 11.0 0.00 0.81 0.16 67 1013.3
20260506211554 55 295 0.0 7.0 0.00 0.81 0.16 67 1013.3
20260506210055 55 325 4.0 10.0 0.00 0.81 0.16 72 1013.4
20260506204556 55 273 2.0 8.0 0.00 0.83 0.16 71 1013.3
20260506203053 55 284 5.0 10.0 0.00 0.83 0.16 71 1013.5
20260506201557 55 278 1.0 10.0 0.00 0.83 0.16 71 1013.5
20260506200055 55 272 3.0 9.0 0.00 0.83 0.16 72 1013.7
20260506194552 55 0 0.0 6.0 0.00 0.90 0.16 71 1013.6
20260506193057 55 277 4.0 10.0 0.00 0.90 0.16 69 1013.5
20260506191559 55 282 0.0 6.0 0.00 0.90 0.16 73 1013.4
20260506190056 55 279 1.0 9.0 0.00 0.90 0.16 73 1013.6
20260506184555 54 288 5.0 10.0 0.00 1.00 0.16 72 1013.5
20260506183102 54 0 0.0 7.0 0.00 1.00 0.16 76 1013.5
20260506181601 54 273 1.0 6.0 0.00 1.00 0.16 75 1013.5